Total_Precipitation_Accumulation
0.00 0.01 0.08 0.25 0.83 1.04 0.94 0.56 0.43 0.35 0.34 0.36 0.43 0.42 0.40 0.45 0.54 0.91 0.45 0.14 0.05 0.01 0.02 0.10 0.18 0.16 0.13 0.12 0.13 0.15 0.17 0.17 0.16 0.15 0.14 0.11 0.08 0.07 0.07 0.08 0.09 0.10 0.11 0.11 0.12 0.16 0.19 0.22 0.26
0.01 0.03 0.13 0.44 0.86 0.98 0.86 0.45 0.34 0.31 0.29 0.39 0.45 0.37 0.32 0.35 0.26 0.21 0.20 0.16 0.06 0.01 0.01 0.03 0.13 0.15 0.13 0.13 0.14 0.14 0.14 0.13 0.13 0.12 0.12 0.09 0.08 0.09 0.09 0.10 0.10 0.12 0.12 0.12 0.15 0.20 0.19 0.18 0.22
0.02 0.06 0.22 0.53 0.52 0.54 0.52 0.31 0.28 0.34 0.42 0.60 0.69 0.46 0.37 0.44 0.29 0.15 0.12 0.10 0.07 0.03 0.02 0.05 0.11 0.12 0.12 0.12 0.12 0.12 0.11 0.11 0.11 0.10 0.10 0.08 0.08 0.09 0.10 0.10 0.12 0.14 0.15 0.17 0.19 0.22 0.19 0.17 0.17
0.03 0.11 0.26 0.34 0.21 0.21 0.28 0.21 0.27 0.37 0.65 0.78 0.80 0.61 0.48 0.42 0.30 0.20 0.10 0.09 0.08 0.05 0.04 0.07 0.11 0.12 0.12 0.12 0.12 0.11 0.10 0.10 0.10 0.10 0.10 0.08 0.08 0.09 0.10 0.11 0.13 0.17 0.19 0.18 0.21 0.19 0.19 0.18 0.19
0.02 0.13 0.33 0.23 0.09 0.11 0.13 0.12 0.19 0.30 0.54 0.74 0.76 0.77 0.68 0.53 0.43 0.28 0.15 0.09 0.06 0.04 0.05 0.07 0.13 0.15 0.15 0.14 0.14 0.14 0.12 0.11 0.11 0.11 0.10 0.10 0.10 0.11 0.12 0.13 0.15 0.16 0.21 0.19 0.18 0.18 0.21 0.24 0.25
0.04 0.10 0.20 0.13 0.07 0.07 0.09 0.10 0.20 0.37 0.57 0.74 0.87 0.94 0.77 0.52 0.41 0.29 0.20 0.18 0.18 0.07 0.05 0.09 0.15 0.17 0.18 0.17 0.17 0.16 0.15 0.14 0.13 0.13 0.12 0.13 0.13 0.12 0.13 0.16 0.17 0.18 0.20 0.20 0.20 0.19 0.21 0.26 0.29
0.03 0.04 0.08 0.08 0.05 0.05 0.08 0.14 0.24 0.39 0.50 0.78 1.04 1.07 0.79 0.65 0.52 0.35 0.34 0.30 0.48 0.26 0.14 0.13 0.13 0.17 0.20 0.22 0.21 0.19 0.17 0.16 0.15 0.15 0.13 0.13 0.12 0.12 0.14 0.19 0.21 0.20 0.22 0.20 0.20 0.21 0.23 0.27 0.29
0.01 0.02 0.04 0.03 0.02 0.03 0.07 0.14 0.25 0.38 0.65 0.90 0.90 0.97 0.97 0.71 0.63 0.58 0.59 0.54 0.61 0.48 0.30 0.24 0.24 0.29 0.28 0.25 0.23 0.24 0.22 0.19 0.17 0.15 0.13 0.13 0.13 0.17 0.23 0.25 0.26 0.26 0.29 0.28 0.28 0.30 0.34 0.37 0.37
0.00 0.02 0.04 0.03 0.01 0.04 0.10 0.20 0.26 0.33 0.53 0.70 0.77 0.74 0.59 0.57 0.71 0.77 0.78 0.78 0.82 0.76 0.66 0.57 0.48 0.44 0.45 0.41 0.33 0.35 0.35 0.33 0.29 0.29 0.28 0.31 0.42 0.46 0.58 0.53 0.56 0.51 0.50 0.52 0.52 0.55 0.58 0.60 0.51
0.00 0.03 0.02 0.01 0.01 0.03 0.09 0.18 0.30 0.38 0.65 1.01 1.06 1.10 0.77 0.79 0.93 0.96 0.92 0.83 0.95 1.08 0.98 0.97 0.83 0.63 0.55 0.51 0.62 0.75 0.73 0.76 0.73 0.79 0.76 0.85 0.91 0.90 0.77 0.85 0.93 0.96 1.04 1.03 1.05 1.22 1.10 0.87 0.70
0.00 0.00 0.00 0.00 0.00 0.01 0.04 0.10 0.14 0.32 0.74 1.18 1.25 1.22 1.02 1.00 1.09 1.16 1.17 1.24 1.34 1.52 1.30 1.10 1.08 0.98 0.93 0.96 0.96 0.99 1.11 1.20 1.32 1.38 1.35 1.45 1.26 1.10 1.03 1.26 1.41 1.38 1.36 1.29 1.53 1.74 1.39 1.33 1.42
0.00 0.00 0.00 0.00 0.00 0.01 0.03 0.10 0.20 0.34 0.77 1.05 0.95 0.84 0.86 1.07 1.24 1.37 1.65 1.83 1.97 2.09 1.97 1.84 1.62 1.49 1.44 1.33 1.16 1.08 1.05 1.14 1.26 1.38 1.44 1.59 1.65 1.54 1.58 1.71 1.59 1.56 1.59 1.77 1.78 1.94 1.78 1.67 1.61
0.00 0.00 0.00 0.00 0.01 0.01 0.05 0.14 0.27 0.40 0.67 0.64 0.55 0.62 1.01 1.29 1.49 1.73 1.94 2.10 2.26 2.53 2.55 2.86 2.61 2.20 1.89 1.63 1.38 1.15 1.06 0.95 0.95 1.08 1.30 1.47 1.60 1.70 1.82 1.66 1.53 1.35 1.60 1.85 1.89 1.73 1.88 1.91 1.96
0.00 0.00 0.01 0.02 0.01 0.02 0.05 0.10 0.34 0.45 0.56 0.62 0.60 0.84 1.33 1.83 2.00 2.17 2.42 2.74 2.96 3.32 3.27 3.31 3.45 2.91 2.28 1.85 1.54 1.28 1.03 1.03 1.05 1.06 1.13 1.31 1.46 1.55 1.61 1.55 1.46 1.39 1.55 1.74 1.76 1.74 1.97 2.06 2.05
0.00 0.03 0.10 0.09 0.05 0.05 0.07 0.19 0.44 0.59 0.60 0.79 0.88 1.09 1.62 2.27 2.25 2.47 2.67 3.05 3.43 3.87 4.00 3.96 3.97 3.59 3.02 2.56 2.03 1.52 1.27 1.11 1.14 1.15 1.06 1.07 1.19 1.24 1.36 1.39 1.34 1.37 1.43 1.46 1.44 1.50 1.69 1.67 1.60
0.01 0.08 0.23 0.18 0.09 0.08 0.13 0.52 0.72 0.65 0.59 0.86 1.12 1.36 1.80 2.43 2.48 2.74 3.10 3.47 4.02 4.45 4.71 4.71 4.41 4.19 3.54 2.95 2.49 2.02 1.73 1.49 1.27 1.15 1.00 0.84 0.89 0.96 1.06 1.04 1.05 1.10 1.13 1.13 1.16 1.21 1.32 1.40 1.50
0.03 0.08 0.19 0.19 0.14 0.12 0.19 0.63 0.67 0.44 0.58 0.84 1.17 1.47 1.73 2.07 2.54 3.10 3.55 3.94 4.64 5.60 6.06 5.84 5.10 4.53 3.80 3.09 2.73 2.49 2.28 1.94 1.59 1.40 1.17 0.96 0.85 0.86 0.92 0.93 0.95 0.84 0.86 0.89 0.84 0.98 1.11 1.21 1.27
0.03 0.06 0.14 0.21 0.16 0.21 0.31 0.41 0.52 0.55 0.72 0.93 1.14 1.31 1.56 1.84 2.27 2.94 3.43 3.96 4.81 6.02 6.71 6.59 5.85 4.80 3.93 3.36 2.99 2.76 2.45 2.05 1.67 1.46 1.26 1.02 0.87 0.82 0.80 0.75 0.70 0.62 0.67 0.75 0.79 0.93 0.97 0.98 1.03
0.03 0.06 0.13 0.21 0.16 0.24 0.32 0.42 0.56 0.71 0.93 0.95 1.01 1.08 1.26 1.58 2.00 2.55 3.15 3.67 4.32 5.01 5.48 5.39 4.72 4.07 3.34 2.74 2.19 1.95 1.76 1.53 1.32 1.20 1.04 0.95 0.83 0.76 0.71 0.61 0.63 0.53 0.54 0.58 0.57 0.65 0.72 0.74 0.79
0.04 0.07 0.13 0.17 0.14 0.14 0.25 0.50 0.64 0.73 0.88 0.83 0.84 0.78 0.94 1.36 1.94 2.61 3.18 3.43 3.39 3.55 3.67 3.19 2.93 2.71 2.23 1.94 1.71 1.48 1.41 1.20 0.99 0.92 0.86 0.67 0.62 0.63 0.57 0.62 0.56 0.53 0.56 0.51 0.51 0.57 0.63 0.65 0.66
0.07 0.09 0.09 0.15 0.16 0.21 0.35 0.66 0.84 0.76 0.72 0.62 0.63 0.75 1.21 1.63 2.03 2.47 2.62 2.64 2.53 2.46 2.35 2.02 1.85 1.95 1.81 1.74 1.62 1.47 1.45 1.32 1.06 0.85 0.76 0.59 0.48 0.49 0.55 0.58 0.59 0.57 0.49 0.48 0.51 0.48 0.52 0.53 0.52
0.07 0.06 0.04 0.04 0.12 0.34 0.50 0.89 1.03 0.92 0.81 0.56 0.57 0.90 1.43 1.73 1.98 1.93 1.56 1.41 1.55 1.61 1.63 1.77 1.75 1.72 1.59 1.55 1.30 1.08 0.97 0.86 0.75 0.69 0.63 0.60 0.49 0.44 0.44 0.48 0.57 0.54 0.47 0.52 0.39 0.38 0.44 0.49 0.43
0.04 0.04 0.03 0.05 0.15 0.39 0.65 1.05 1.22 0.97 0.77 0.53 0.42 0.53 0.91 1.15 1.06 0.83 0.71 0.75 0.97 1.19 1.41 1.74 1.75 1.60 1.44 1.36 1.29 1.25 1.12 1.03 0.86 0.76 0.76 0.69 0.62 0.52 0.41 0.39 0.46 0.50 0.51 0.58 0.48 0.47 0.42 0.41 0.37
0.03 0.04 0.10 0.20 0.37 0.82 0.86 0.94 1.15 0.95 0.73 0.53 0.34 0.38 0.62 0.65 0.47 0.47 0.52 0.68 0.88 1.05 1.15 1.33 1.45 1.55 1.52 1.51 1.45 1.33 1.23 1.15 1.01 0.86 0.76 0.68 0.62 0.58 0.53 0.50 0.55 0.56 0.52 0.54 0.51 0.52 0.49 0.47 0.44
0.03 0.05 0.25 0.60 0.89 1.00 0.71 0.85 1.14 0.75 0.48 0.35 0.23 0.20 0.23 0.25 0.32 0.44 0.47 0.59 0.64 0.75 0.80 0.88 0.98 1.13 1.20 1.25 1.30 1.27 1.23 1.15 1.01 0.89 0.76 0.69 0.56 0.50 0.51 0.53 0.59 0.60 0.59 0.54 0.49 0.48 0.51 0.56 0.57
0.04 0.03 0.10 0.21 0.32 0.51 0.66 1.05 1.10 0.68 0.33 0.18 0.11 0.08 0.10 0.13 0.15 0.19 0.23 0.29 0.36 0.49 0.60 0.66 0.72 0.76 0.76 0.78 0.91 1.03 1.01 0.97 0.90 0.92 0.76 0.67 0.62 0.57 0.57 0.53 0.51 0.53 0.53 0.51 0.48 0.41 0.41 0.48 0.55
0.03 0.03 0.04 0.05 0.08 0.30 0.72 0.98 0.84 0.47 0.27 0.17 0.12 0.08 0.08 0.07 0.07 0.08 0.11 0.17 0.26 0.32 0.42 0.52 0.55 0.57 0.60 0.63 0.71 0.75 0.78 0.82 0.84 0.82 0.69 0.60 0.62 0.60 0.58 0.51 0.46 0.44 0.47 0.50 0.50 0.44 0.43 0.43 0.40
0.04 0.03 0.03 0.05 0.10 0.23 0.54 0.98 1.08 0.68 0.39 0.23 0.17 0.11 0.08 0.08 0.06 0.06 0.09 0.13 0.19 0.23 0.33 0.45 0.47 0.48 0.54 0.59 0.64 0.61 0.68 0.72 0.76 0.74 0.67 0.60 0.59 0.58 0.57 0.51 0.46 0.43 0.42 0.44 0.47 0.46 0.49 0.53 0.51
0.05 0.04 0.05 0.06 0.07 0.15 0.39 0.62 0.59 0.55 0.38 0.24 0.17 0.11 0.08 0.08 0.09 0.10 0.08 0.10 0.13 0.17 0.24 0.33 0.40 0.42 0.42 0.47 0.55 0.61 0.64 0.72 0.76 0.74 0.73 0.65 0.62 0.60 0.57 0.55 0.55 0.48 0.42 0.43 0.46 0.47 0.50 0.55 0.62
0.07 0.07 0.07 0.08 0.08 0.11 0.20 0.32 0.33 0.33 0.35 0.33 0.21 0.13 0.11 0.14 0.14 0.16 0.11 0.12 0.10 0.14 0.20 0.26 0.30 0.32 0.34 0.41 0.51 0.55 0.59 0.65 0.75 0.72 0.71 0.73 0.71 0.67 0.63 0.59 0.57 0.48 0.43 0.45 0.44 0.42 0.46 0.56 0.67